Location: Azul
(36.7830°S, 59.8500°W)
Time: 02:43:22
(UTC-03:00)

ISS - Pass Details

Date: 28 November 2020
Orbit: 418 x 420 km, 51.6° (Epoch: 04 December)

Event Time Altitude Azimuth Distance (km) Brightness Sun altitude
Exits shadow 04:02:11 38° 303° (WNW) 664 -3.3 -15.9°
Maximum altitude 04:03:21 81° 220° (SW) 437 -3.8 -15.7°
Drops below altitude 10° 04:06:48 10° 133° (SE) 1,530 0.5 -15.2°
Sets 04:08:55 0° 131° (SE) 2,402 2.1 -14.9°
